Time,TemperatureF,DewpointF,PressureIn,WindDirection,WindDirectionDegrees,WindSpeedMPH,WindSpeedGustMPH,Humidity,HourlyPrecipIn,Conditions,Clouds,dailyrainin,SoftwareType,DateUTC
2013-02-21 00:08:00,-999.0,-99.9,29.91,North,-999,-999.0,-999.0,-999,-99.99,,,0.00,weatherlink.com 1.10,2013-02-21 08:08:00,
2013-02-21 00:23:00,-999.0,-99.9,29.90,North,-999,-999.0,-999.0,-999,-99.99,,,0.00,weatherlink.com 1.10,2013-02-21 08:23:00,
2013-02-21 00:38:00,-999.0,-99.9,29.90,North,-999,-999.0,-999.0,-999,-99.99,,,0.00,weatherlink.com 1.10,2013-02-21 08:38:00,
2013-02-21 00:53:00,-999.0,-99.9,29.91,North,-999,-999.0,-999.0,-999,-99.99,,,0.00,weatherlink.com 1.10,2013-02-21 08:53:00,
2013-02-21 01:08:00,-999.0,-99.9,29.92,North,-999,-999.0,-999.0,-999,-99.99,,,0.00,weatherlink.com 1.10,2013-02-21 09:08:00,
2013-02-21 01:23:00,-999.0,-99.9,29.92,North,-999,-999.0,-999.0,-999,-99.99,,,0.00,weatherlink.com 1.10,2013-02-21 09:23:00,
2013-02-21 01:38:00,-999.0,-99.9,29.93,North,-999,-999.0,-999.0,-999,-99.99,,,0.00,weatherlink.com 1.10,2013-02-21 09:38:00,
2013-02-21 01:53:00,-999.0,-99.9,29.92,North,-999,-999.0,-999.0,-999,-99.99,,,0.00,weatherlink.com 1.10,2013-02-21 09:53:00,
2013-02-21 02:08:00,-999.0,-99.9,29.91,North,-999,-999.0,-999.0,-999,-99.99,,,0.00,weatherlink.com 1.10,2013-02-21 10:08:00,
2013-02-21 02:23:00,-999.0,-99.9,29.91,North,-999,-999.0,-999.0,-999,-99.99,,,0.00,weatherlink.com 1.10,2013-02-21 10:23:00,
2013-02-21 02:38:00,-999.0,-99.9,29.91,North,-999,-999.0,-999.0,-999,-99.99,,,0.00,weatherlink.com 1.10,2013-02-21 10:38:00,
2013-02-21 02:52:00,-999.0,-99.9,29.91,North,-999,-999.0,-999.0,-999,-99.99,,,0.00,weatherlink.com 1.10,2013-02-21 10:52:00,
2013-02-21 03:07:00,-999.0,-99.9,29.92,North,-999,-999.0,-999.0,-999,-99.99,,,0.00,weatherlink.com 1.10,2013-02-21 11:07:00,
2013-02-21 03:22:00,-999.0,-99.9,29.91,North,-999,-999.0,-999.0,-999,-99.99,,,0.00,weatherlink.com 1.10,2013-02-21 11:22:00,
2013-02-21 03:37:00,-999.0,-99.9,29.90,North,-999,-999.0,-999.0,-999,-99.99,,,0.00,weatherlink.com 1.10,2013-02-21 11:37:00,
2013-02-21 03:52:00,-999.0,-99.9,29.91,North,-999,-999.0,-999.0,-999,-99.99,,,0.00,weatherlink.com 1.10,2013-02-21 11:52:00,
2013-02-21 04:07:00,-999.0,-99.9,29.91,North,-999,-999.0,-999.0,-999,-99.99,,,0.00,weatherlink.com 1.10,2013-02-21 12:07:00,
2013-02-21 04:22:00,-999.0,-99.9,29.91,North,-999,-999.0,-999.0,-999,-99.99,,,0.00,weatherlink.com 1.10,2013-02-21 12:22:00,
2013-02-21 04:37:00,-999.0,-99.9,29.90,North,-999,-999.0,-999.0,-999,-99.99,,,0.00,weatherlink.com 1.10,2013-02-21 12:37:00,
2013-02-21 04:52:00,-999.0,-99.9,29.90,North,-999,-999.0,-999.0,-999,-99.99,,,0.00,weatherlink.com 1.10,2013-02-21 12:52:00,
2013-02-21 05:07:00,-999.0,-99.9,29.91,North,-999,-999.0,-999.0,-999,-99.99,,,0.00,weatherlink.com 1.10,2013-02-21 13:07:00,
2013-02-21 05:22:00,-999.0,-99.9,29.91,North,-999,-999.0,-999.0,-999,-99.99,,,0.00,weatherlink.com 1.10,2013-02-21 13:22:00,
2013-02-21 05:37:00,-999.0,-99.9,29.91,North,-999,-999.0,-999.0,-999,-99.99,,,0.00,weatherlink.com 1.10,2013-02-21 13:37:00,
2013-02-21 05:52:00,-999.0,-99.9,29.90,North,-999,-999.0,-999.0,-999,-99.99,,,0.00,weatherlink.com 1.10,2013-02-21 13:52:00,
2013-02-21 06:07:00,-999.0,-99.9,29.91,North,-999,-999.0,-999.0,-999,-99.99,,,0.00,weatherlink.com 1.10,2013-02-21 14:07:00,
2013-02-21 06:22:00,-999.0,-99.9,29.91,North,-999,-999.0,-999.0,-999,-99.99,,,0.00,weatherlink.com 1.10,2013-02-21 14:22:00,
2013-02-21 06:37:00,-999.0,-99.9,29.91,North,-999,-999.0,-999.0,-999,-99.99,,,0.00,weatherlink.com 1.10,2013-02-21 14:37:00,
2013-02-21 06:52:00,-999.0,-99.9,29.91,North,-999,-999.0,-999.0,-999,-99.99,,,0.00,weatherlink.com 1.10,2013-02-21 14:52:00,
2013-02-21 07:07:00,-999.0,-99.9,29.91,North,-999,-999.0,-999.0,-999,-99.99,,,0.00,weatherlink.com 1.10,2013-02-21 15:07:00,
2013-02-21 07:22:00,-999.0,-99.9,29.92,North,-999,-999.0,-999.0,-999,-99.99,,,0.00,weatherlink.com 1.10,2013-02-21 15:22:00,
2013-02-21 07:37:00,-999.0,-99.9,29.92,North,-999,-999.0,-999.0,-999,-99.99,,,0.00,weatherlink.com 1.10,2013-02-21 15:37:00,
2013-02-21 07:52:00,-999.0,-99.9,29.92,North,-999,-999.0,-999.0,-999,-99.99,,,0.00,weatherlink.com 1.10,2013-02-21 15:52:00,
2013-02-21 08:07:00,-999.0,-99.9,29.92,North,-999,-999.0,-999.0,-999,-99.99,,,0.00,weatherlink.com 1.10,2013-02-21 16:07:00,
2013-02-21 08:22:00,-999.0,-99.9,29.92,North,-999,-999.0,-999.0,-999,-99.99,,,0.00,weatherlink.com 1.10,2013-02-21 16:22:00,
2013-02-21 08:37:00,-999.0,-99.9,29.93,North,-999,-999.0,-999.0,-999,-99.99,,,0.00,weatherlink.com 1.10,2013-02-21 16:37:00,
2013-02-21 08:52:00,-999.0,-99.9,29.93,North,-999,-999.0,-999.0,-999,-99.99,,,0.00,weatherlink.com 1.10,2013-02-21 16:52:00,
2013-02-21 09:07:00,-999.0,-99.9,29.93,North,-999,-999.0,-999.0,-999,-99.99,,,0.00,weatherlink.com 1.10,2013-02-21 17:07:00,
2013-02-21 09:22:00,-999.0,-99.9,29.91,North,-999,-999.0,-999.0,-999,-99.99,,,0.00,weatherlink.com 1.10,2013-02-21 17:22:00,
2013-02-21 09:37:00,-999.0,-99.9,29.91,North,-999,-999.0,-999.0,-999,-99.99,,,0.00,weatherlink.com 1.10,2013-02-21 17:37:00,
2013-02-21 09:52:00,-999.0,-99.9,29.92,North,-999,-999.0,-999.0,-999,-99.99,,,0.00,weatherlink.com 1.10,2013-02-21 17:52:00,
2013-02-21 10:07:00,-999.0,-99.9,29.92,North,-999,-999.0,-999.0,-999,-99.99,,,0.00,weatherlink.com 1.10,2013-02-21 18:07:00,
2013-02-21 10:22:00,42.3,39.0,29.93,SW,219,4.0,-999.0,89,-99.99,,,0.00,weatherlink.com 1.10,2013-02-21 18:22:00,
2013-02-21 10:37:00,42.7,39.0,29.93,WSW,256,6.0,-999.0,87,-99.99,,,0.00,weatherlink.com 1.10,2013-02-21 18:37:00,
2013-02-21 10:53:00,42.5,39.0,29.93,South,176,1.0,-999.0,87,-99.99,,,0.00,weatherlink.com 1.10,2013-02-21 18:53:00,
2013-02-21 11:08:00,42.3,39.0,29.93,South,178,5.0,-999.0,88,-99.99,,,0.00,weatherlink.com 1.10,2013-02-21 19:08:00,
2013-02-21 11:23:00,42.2,39.0,29.92,SW,233,9.0,-999.0,87,-99.99,,,0.00,weatherlink.com 1.10,2013-02-21 19:23:00,
2013-02-21 11:37:00,42.6,39.0,29.94,SSW,212,9.0,-999.0,87,-99.99,,,0.00,weatherlink.com 1.10,2013-02-21 19:37:00,
2013-02-21 11:52:00,42.6,39.0,29.94,South,179,7.0,-999.0,87,-99.99,,,0.00,weatherlink.com 1.10,2013-02-21 19:52:00,
2013-02-21 12:07:00,42.5,39.0,29.94,SSW,205,6.0,-999.0,87,-99.99,,,0.00,weatherlink.com 1.10,2013-02-21 20:07:00,
2013-02-21 12:23:00,42.4,39.0,29.93,SW,223,8.0,-999.0,86,-99.99,,,0.00,weatherlink.com 1.10,2013-02-21 20:23:00,
2013-02-21 12:38:00,42.4,39.0,29.93,SW,224,9.0,-999.0,87,-99.99,,,0.00,weatherlink.com 1.10,2013-02-21 20:38:00,
2013-02-21 12:53:00,42.5,39.0,29.92,SSW,203,2.0,-999.0,86,-99.99,,,0.00,weatherlink.com 1.10,2013-02-21 20:53:00,
2013-02-21 13:08:00,42.9,39.0,29.92,WSW,253,4.0,-999.0,87,-99.99,,,0.00,weatherlink.com 1.10,2013-02-21 21:08:00,
2013-02-21 13:37:00,42.5,40.0,29.91,South,190,7.0,-999.0,89,-99.99,,,0.00,weatherlink.com 1.10,2013-02-21 21:37:00,
2013-02-21 13:52:00,42.8,40.0,29.91,South,184,1.0,-999.0,90,-99.99,,,0.00,weatherlink.com 1.10,2013-02-21 21:52:00,
2013-02-21 14:08:00,43.1,40.0,29.91,SSW,200,2.0,-999.0,88,-99.99,,,0.00,weatherlink.com 1.10,2013-02-21 22:08:00,
2013-02-21 14:23:00,43.2,40.0,29.90,WNW,298,3.0,-999.0,89,-99.99,,,0.00,weatherlink.com 1.10,2013-02-21 22:23:00,
2013-02-21 14:38:00,44.0,40.0,29.90,SSW,203,0.0,-999.0,87,-99.99,,,0.00,weatherlink.com 1.10,2013-02-21 22:38:00,
2013-02-21 14:53:00,43.4,40.0,29.90,SSE,150,4.0,-999.0,87,-99.99,,,0.00,weatherlink.com 1.10,2013-02-21 22:53:00,
2013-02-21 15:07:00,43.2,40.0,29.90,SSW,192,3.0,-999.0,88,-99.99,,,0.00,weatherlink.com 1.10,2013-02-21 23:07:00,
2013-02-21 15:22:00,43.2,39.0,29.90,SSW,198,7.0,-999.0,86,-99.99,,,0.00,weatherlink.com 1.10,2013-02-21 23:22:00,
2013-02-21 15:37:00,43.0,39.0,29.90,ESE,121,1.0,-999.0,87,-99.99,,,0.00,weatherlink.com 1.10,2013-02-21 23:37:00,
2013-02-21 15:52:00,43.0,40.0,29.90,SW,232,1.0,-999.0,88,-99.99,,,0.00,weatherlink.com 1.10,2013-02-21 23:52:00,
2013-02-21 16:08:00,43.1,40.0,29.91,SE,138,1.0,-999.0,89,-99.99,,,0.00,weatherlink.com 1.10,2013-02-22 00:08:00,
2013-02-21 16:23:00,43.1,40.0,29.90,SSW,207,1.0,-999.0,89,-99.99,,,0.00,weatherlink.com 1.10,2013-02-22 00:23:00,
2013-02-21 16:38:00,43.3,41.0,29.90,WSW,247,3.0,-999.0,90,-99.99,,,0.00,weatherlink.com 1.10,2013-02-22 00:38:00,
2013-02-21 16:52:00,-999.0,-99.9,29.90,North,-999,-999.0,-999.0,-999,-99.99,,,0.00,weatherlink.com 1.10,2013-02-22 00:52:00,
2013-02-21 17:07:00,-999.0,-99.9,29.90,North,-999,-999.0,-999.0,-999,-99.99,,,0.00,weatherlink.com 1.10,2013-02-22 01:07:00,
2013-02-21 17:22:00,-999.0,-99.9,29.92,North,-999,-999.0,-999.0,-999,-99.99,,,0.00,weatherlink.com 1.10,2013-02-22 01:22:00,
2013-02-21 17:37:00,-999.0,-99.9,29.92,North,-999,-999.0,-999.0,-999,-99.99,,,0.00,weatherlink.com 1.10,2013-02-22 01:37:00,
2013-02-21 17:52:00,-999.0,-99.9,29.93,North,-999,-999.0,-999.0,-999,-99.99,,,0.00,weatherlink.com 1.10,2013-02-22 01:52:00,
2013-02-21 18:07:00,-999.0,-99.9,29.93,North,-999,-999.0,-999.0,-999,-99.99,,,0.00,weatherlink.com 1.10,2013-02-22 02:07:00,
2013-02-21 18:22:00,-999.0,-99.9,29.93,North,-999,-999.0,-999.0,-999,-99.99,,,0.00,weatherlink.com 1.10,2013-02-22 02:22:00,
2013-02-21 18:37:00,-999.0,-99.9,29.92,North,-999,-999.0,-999.0,-999,-99.99,,,0.00,weatherlink.com 1.10,2013-02-22 02:37:00,
2013-02-21 18:52:00,-999.0,-99.9,29.92,North,-999,-999.0,-999.0,-999,-99.99,,,0.00,weatherlink.com 1.10,2013-02-22 02:52:00,
2013-02-21 19:07:00,-999.0,-99.9,29.92,North,-999,-999.0,-999.0,-999,-99.99,,,0.00,weatherlink.com 1.10,2013-02-22 03:07:00,
2013-02-21 19:22:00,-999.0,-99.9,29.92,North,-999,-999.0,-999.0,-999,-99.99,,,0.00,weatherlink.com 1.10,2013-02-22 03:22:00,
2013-02-21 19:37:00,-999.0,-99.9,29.93,North,-999,-999.0,-999.0,-999,-99.99,,,0.00,weatherlink.com 1.10,2013-02-22 03:37:00,
2013-02-21 19:52:00,-999.0,-99.9,29.92,North,-999,-999.0,-999.0,-999,-99.99,,,0.00,weatherlink.com 1.10,2013-02-22 03:52:00,
2013-02-21 20:08:00,-999.0,-99.9,29.92,North,-999,-999.0,-999.0,-999,-99.99,,,0.00,weatherlink.com 1.10,2013-02-22 04:08:00,
2013-02-21 20:23:00,-999.0,-99.9,29.93,North,-999,-999.0,-999.0,-999,-99.99,,,0.00,weatherlink.com 1.10,2013-02-22 04:23:00,
2013-02-21 20:38:00,-999.0,-99.9,29.94,North,-999,-999.0,-999.0,-999,-99.99,,,0.00,weatherlink.com 1.10,2013-02-22 04:38:00,
2013-02-21 20:53:00,-999.0,-99.9,29.95,North,-999,-999.0,-999.0,-999,-99.99,,,0.00,weatherlink.com 1.10,2013-02-22 04:53:00,
2013-02-21 21:08:00,-999.0,-99.9,29.95,North,-999,-999.0,-999.0,-999,-99.99,,,0.00,weatherlink.com 1.10,2013-02-22 05:08:00,
2013-02-21 21:23:00,-999.0,-99.9,29.95,North,-999,-999.0,-999.0,-999,-99.99,,,0.00,weatherlink.com 1.10,2013-02-22 05:23:00,
2013-02-21 21:38:00,-999.0,-99.9,29.95,North,-999,-999.0,-999.0,-999,-99.99,,,0.00,weatherlink.com 1.10,2013-02-22 05:38:00,
2013-02-21 21:53:00,-999.0,-99.9,29.95,North,-999,-999.0,-999.0,-999,-99.99,,,0.00,weatherlink.com 1.10,2013-02-22 05:53:00,
2013-02-21 22:08:00,-999.0,-99.9,29.95,North,-999,-999.0,-999.0,-999,-99.99,,,0.00,weatherlink.com 1.10,2013-02-22 06:08:00,
2013-02-21 22:23:00,-999.0,-99.9,29.95,North,-999,-999.0,-999.0,-999,-99.99,,,0.00,weatherlink.com 1.10,2013-02-22 06:23:00,
2013-02-21 22:38:00,-999.0,-99.9,29.94,North,-999,-999.0,-999.0,-999,-99.99,,,0.00,weatherlink.com 1.10,2013-02-22 06:38:00,
2013-02-21 22:53:00,-999.0,-99.9,29.94,North,-999,-999.0,-999.0,-999,-99.99,,,0.00,weatherlink.com 1.10,2013-02-22 06:53:00,
2013-02-21 23:08:00,-999.0,-99.9,29.93,North,-999,-999.0,-999.0,-999,-99.99,,,0.00,weatherlink.com 1.10,2013-02-22 07:08:00,
2013-02-21 23:23:00,-999.0,-99.9,29.93,North,-999,-999.0,-999.0,-999,-99.99,,,0.00,weatherlink.com 1.10,2013-02-22 07:23:00,
2013-02-21 23:38:00,-999.0,-99.9,29.92,North,-999,-999.0,-999.0,-999,-99.99,,,0.00,weatherlink.com 1.10,2013-02-22 07:38:00,
2013-02-21 23:53:00,-999.0,-99.9,29.93,North,-999,-999.0,-999.0,-999,-99.99,,,0.00,weatherlink.com 1.10,2013-02-22 07:53:00,